Location: Newark
(52.2090°N, 4.1550°W)
Time: 12:16:37
(UTC+00:00)

Transit 2A Rocket - Visible Passes

Search period start: 20 September 2019 00:00
Search period end: 30 September 2019 00:00
Orbit: 592 x 911 km, 66.7° (Epoch: 19 September)

Date Brightness Start Highest point End Pass type
(mag) Time Alt. Az. Time Alt. Az. Time Alt. Az.
20 Sep 5.2 19:42:58 10° NNW 19:47:16 41° NE 19:49:33 23° E visible
20 Sep 5.7 21:25:43 10° NW 21:29:27 35° WSW 21:29:27 35° WSW visible
21 Sep 5.7 19:00:31 10° NNW 19:04:31 29° NNE 19:08:12 11° E visible
21 Sep 4.8 20:43:00 10° NW 20:47:23 60° WSW 20:48:06 51° SSW visible
22 Sep 4.4 20:00:25 10° NW 20:04:54 84° NE 20:06:48 33° SE visible
22 Sep 6.9 21:44:14 10° WNW 21:46:42 15° WSW 21:46:42 15° WSW visible
23 Sep 4.8 19:17:54 10° NNW 19:22:19 53° NE 19:25:33 16° ESE visible
23 Sep 6.2 21:00:56 10° WNW 21:04:33 25° WSW 21:05:28 24° SW visible
24 Sep 5.3 18:35:26 10° NNW 18:39:38 36° NE 18:43:38 10° ESE visible
24 Sep 5.5 20:18:04 10° NW 20:22:15 42° WSW 20:24:16 25° S visible
25 Sep 4.7 19:35:24 10° NW 19:39:50 71° SW 19:43:09 16° SSE visible
25 Sep 7.3 21:20:40 10° W 21:21:27 10° WSW 21:22:15 10° WSW visible
26 Sep 4.5 18:52:51 10° NW 18:57:19 72° NE 19:01:36 10° SE visible
26 Sep 6.9 20:36:19 10° WNW 20:39:19 18° WSW 20:42:04 11° SSW visible
27 Sep 6.2 19:53:13 10° NW 19:57:04 30° WSW 20:00:49 10° S visible
28 Sep 5.3 19:10:27 10° NW 19:14:43 50° WSW 19:18:52 10° SSE visible
29 Sep 4.6 18:27:49 10° NW 18:32:16 84° SW 18:36:34 10° SE visible
29 Sep 7.3 20:12:06 10° W 20:14:02 13° WSW 20:15:56 10° SW visible
